[[{"header":{"parameterUnit":"m.s-1","parameterCategory":1,"la1":30.2992,"la2":30.254,"lo1":-89.0895,"lo2":-89.0443,"dy":0.0025,"dx":0.0025,"nx":19,"ny":19,"refTime":"2026-04-05T03:00:00:Z","depth":0,"parameterNumber":2,"parameterNumberName":"U-component_of_WINDS"},"data":[0,0,0,-5.1029,-5.1033,-5.1203,-5.1204,-5.1457,-5.1459,0,0,0,0,0,0,0,0,0,0,0,-5.1002,-5.1004,-5.1029,-5.1034,-5.1203,-5.1204,-5.1456,-5.1459,0,0,0,0,0,0,0,0,0,0,0,-5.1001,-5.1004,-5.1007,-5.1034,-5.1203,-5.1204,-5.1456,-5.1315,0,0,0,0,0,0,0,0,0,0,-5.1143,-5.1141,-5.1003,-5.1007,-5.1035,-5.1203,-5.1204,-5.1307,-5.1323,-5.1396,0,-5.1467,0,-5.1468,-5.1479,-5.148,0,0,0,-5.1016,-5.1128,-5.1153,-5.1007,-5.1037,-5.1203,-5.1122,-5.1316,-5.1334,-5.1418,-5.147,-5.1479,-5.1472,-5.1481,-5.1482,-5.1961,-5.1963,0,0,-5.1007,-5.1045,-5.114,-5.1166,-5.1143,-5.1116,-5.1127,-5.1326,-5.1386,-5.1471,-5.1484,-5.1476,-5.1483,-5.1485,-5.1958,-5.1961,0,0,0,-5.0992,-5.1039,-5.1058,-5.1156,-5.1184,-5.1122,-5.1134,-5.1377,-5.138,-5.1486,-5.1479,-5.1484,-5.1488,-5.1954,-5.1959,-5.2149,0,0,0,-5.0985,-5.103,-5.1055,-5.108,-5.1182,-5.1283,-5.1182,-5.1367,-5.1388,-5.1478,-5.1484,-5.1491,-5.1951,-5.1957,-5.2137,-5.2234,0,0,0,-5.0983,-5.1029,-5.1062,-5.1081,-5.1156,-5.1279,-5.1293,-5.137,-5.1385,-5.148,-5.1491,-5.1948,-5.1956,-5.2126,-5.2215,-5.2373,0,0,0,-5.0991,-5.1227,-5.1065,-5.1326,-5.1155,-5.1395,-5.1291,-5.1468,-5.1572,-5.1486,-5.1951,-5.1958,-5.2122,-5.2204,-5.2362,-5.2516,-5.2582,0,0,-5.131,-5.1267,-5.1417,-5.1277,-5.1557,-5.1366,-5.1672,-5.1731,-5.1704,-5.1876,-5.1887,-5.2141,-5.2214,-5.2371,-5.2937,-5.2991,0,0,0,-5.1531,-5.164,-5.1705,-5.1807,-5.1858,-5.191,-5.1918,-5.194,-5.2084,-5.1801,-5.2237,-5.228,-5.237,-5.2442,-5.2488,-5.2564,-5.1992,-5.1992,-5.1991,-5.204,-5.1993,-5.2239,-5.2214,-5.2313,-5.2319,-5.2396,-5.2425,-5.2348,-5.2452,-5.2505,-5.2854,-5.294,-5.2974,-5.3054,-5.2579,-5.2579,-5.258,-5.258,-5.2506,-5.2654,-5.2546,-5.2746,-5.2695,-5.2862,-5.2876,-5.2816,-5.2964,-5.2811,-5.2888,-5.2729,-5.3034,-5.3101,-5.2594,-5.2592,-5.259,-5.2589,-5.2588,-5.2837,-5.29,-5.2922,-5.3065,-5.3179,-5.3143,-5.3291,-5.3237,-5.3188,-5.3265,-5.3315,-5.3312,-5.3305,-5.3292,-5.3293,-5.3294,-5.3295,-5.3296,-5.3297,-5.3174,-5.3192,-5.3324,-5.3398,-5.3456,-5.3526,-5.3533,-5.3588,-5.3636,-5.3586,-5.3586,-5.3501,-5.3071,-5.2966,-5.3316,-5.3312,-5.331,-5.3308,-5.3307,-5.3671,-5.355,-5.3754,-5.3813,-5.3894,-5.4013,-5.3941,-5.4059,-5.4097,-5.4172,-5.4068,-5.3758,-5.371,-5.3674,-5.3587,-5.4076,-5.4076,-5.4076,-5.4076,-5.3954,-5.3923,-5.412,-5.4218,-5.4307,-5.4263,-5.4495,-5.4502,-5.4489,-5.4509,-5.443,-5.4308,-5.4273,-5.4246,-5.4197,-5.4116,-5.4728,-5.4729,-5.473,-5.4258,-5.4234,-5.4443,-5.443,-5.4489,-5.4541,-5.4758,-5.4874,-5.4833,-5.4755,-5.4525,-5.4497,-5.4301,-5.4239,-5.4161,-5.4086,-5.3935,0,0]},{"header":{"parameterUnit":"m.s-1","parameterCategory":1,"la1":30.2992,"la2":30.254,"lo1":-89.0895,"lo2":-89.0443,"dy":0.0025,"dx":0.0025,"nx":19,"ny":19,"refTime":"2026-04-05T03:00:00:Z","depth":0,"parameterNumber":3,"parameterNumberName":"V-component_of_WINDS"},"data":[0,0,0,-6.3291,-6.3294,-6.3424,-6.3424,-6.3606,-6.3607,0,0,0,0,0,0,0,0,0,0,0,-6.3266,-6.3268,-6.3291,-6.3295,-6.3424,-6.3424,-6.3605,-6.3607,0,0,0,0,0,0,0,0,0,0,0,-6.3265,-6.3267,-6.327,-6.3295,-6.3424,-6.3424,-6.3605,-6.3501,0,0,0,0,0,0,0,0,0,0,-6.3372,-6.3363,-6.3267,-6.327,-6.3296,-6.3424,-6.3425,-6.3495,-6.3507,-6.3555,0,-6.3604,0,-6.3609,-6.3621,-6.3622,0,0,0,-6.3284,-6.3353,-6.3376,-6.327,-6.3298,-6.3424,-6.3363,-6.3502,-6.3515,-6.3571,-6.3606,-6.3612,-6.3612,-6.3622,-6.3623,-6.394,-6.3942,0,0,-6.3277,-6.3296,-6.3367,-6.3386,-6.3371,-6.3359,-6.3367,-6.351,-6.3548,-6.3607,-6.3616,-6.3615,-6.3624,-6.3625,-6.3939,-6.3941,0,0,0,-6.3264,-6.3291,-6.3311,-6.3379,-6.3401,-6.3363,-6.3372,-6.3542,-6.3547,-6.3618,-6.3617,-6.3625,-6.3627,-6.3936,-6.3939,-6.4057,0,0,0,-6.3259,-6.3284,-6.3308,-6.3321,-6.3399,-6.3474,-6.3402,-6.3537,-6.3552,-6.3616,-6.3625,-6.3629,-6.3934,-6.3938,-6.4049,-6.4109,0,0,0,-6.3253,-6.3283,-6.3306,-6.3322,-6.3378,-6.3471,-6.3484,-6.354,-6.3553,-6.3622,-6.363,-6.3933,-6.3937,-6.4042,-6.4097,-6.4198,0,0,0,-6.3252,-6.3408,-6.3309,-6.3482,-6.3378,-6.3544,-6.3483,-6.3605,-6.3679,-6.3626,-6.3935,-6.3939,-6.404,-6.409,-6.4191,-6.4287,-6.4329,0,0,-6.3459,-6.3434,-6.3534,-6.3449,-6.3639,-6.3523,-6.3728,-6.3776,-6.3763,-6.3881,-6.3889,-6.4052,-6.4097,-6.4197,-6.4557,-6.459,0,0,0,-6.3606,-6.3679,-6.3725,-6.3797,-6.3839,-6.3879,-6.3893,-6.3911,-6.401,-6.3829,-6.4115,-6.4141,-6.4198,-6.4243,-6.4272,-6.432,-6.3961,-6.396,-6.396,-6.3927,-6.3904,-6.4068,-6.4062,-6.4132,-6.4145,-6.4199,-6.4224,-6.4179,-6.4247,-6.4282,-6.4504,-6.4557,-6.4578,-6.4629,-6.4331,-6.4331,-6.4332,-6.4332,-6.4228,-6.4327,-6.4265,-6.4402,-6.4376,-6.4489,-6.4507,-6.4471,-6.4571,-6.4476,-6.4525,-6.4423,-6.4616,-6.4658,-6.4341,-6.4339,-6.4338,-6.4337,-6.4337,-6.4436,-6.4479,-6.4499,-6.46,-6.468,-6.4665,-6.4765,-6.4737,-6.4711,-6.476,-6.4793,-6.4791,-6.4785,-6.4778,-6.4778,-6.4779,-6.478,-6.478,-6.4781,-6.4643,-6.4662,-6.4751,-6.4808,-6.485,-6.4901,-6.4915,-6.4954,-6.499,-6.4961,-6.4962,-6.491,-6.464,-6.4572,-6.4793,-6.4791,-6.4789,-6.4788,-6.4787,-6.4958,-6.4882,-6.502,-6.5062,-6.5125,-6.5205,-6.5168,-6.525,-6.5278,-6.5328,-6.5265,-6.507,-6.5041,-6.5018,-6.4962,-6.527,-6.527,-6.527,-6.527,-6.5133,-6.5116,-6.5249,-6.5318,-6.5382,-6.5363,-6.5515,-6.5526,-6.5525,-6.5541,-6.5492,-6.5415,-6.5393,-6.5377,-6.5346,-6.5293,-6.5679,-6.5679,-6.5679,-6.5324,-6.5312,-6.5449,-6.545,-6.5497,-6.5537,-6.5679,-6.5758,-6.5741,-6.5695,-6.5552,-6.5534,-6.541,-6.5371,-6.5323,-6.5276,-6.5179,0,0]}]]